Location: Miramichi City (Newcastle)
(46.9830°N, 65.5670°W)
Time: 16:14:56
(UTC-04:00)

Iridium 12 - Visible Passes

Search period start: 20 December 2014 00:00
Search period end: 30 December 2014 00:00
Orbit: 776 x 779 km, 86.4° (Epoch: 20 December)

Date Brightness Start Highest point End Pass type
(mag) Time Alt. Az. Time Alt. Az. Time Alt. Az.
20 Dec 7.6 05:43:03 10° NNE 05:47:23 26° ENE 05:51:40 10° SE visible
20 Dec 5.9 07:23:22 10° NNW 07:28:18 44° W 07:33:12 10° SSW visible
20 Dec 5.7 18:42:40 10° SSE 18:47:27 47° E 18:47:27 47° E visible
20 Dec 7.6 20:24:23 10° SW 20:28:01 24° W 20:28:01 24° W visible
21 Dec 8.3 05:10:28 10° NE 05:13:29 15° ENE 05:16:28 10° ESE visible
21 Dec 5.5 06:49:38 10° N 06:54:52 78° W 07:00:03 10° S visible
21 Dec 6.3 18:09:58 10° SE 18:14:18 27° E 18:15:22 25° ENE visible
21 Dec 6.7 19:49:55 10° SSW 19:54:49 41° W 19:55:56 36° NW visible
22 Dec 6.1 06:16:08 10° N 06:21:18 61° E 06:26:27 10° SSE visible
22 Dec 7.0 17:38:00 10° ESE 17:41:05 16° ENE 17:43:20 13° NE visible
22 Dec 5.7 19:15:58 10° S 19:21:10 72° W 19:23:54 29° N visible
22 Dec 8.5 21:02:26 10° WNW 21:02:54 10° WNW 21:03:22 10° WNW visible
23 Dec 7.1 05:42:51 10° NNE 05:47:37 35° ENE 05:52:22 10° SE visible
23 Dec 6.3 07:23:42 10° NNW 07:28:16 32° W 07:32:49 10° SW visible
23 Dec 5.4 18:42:30 10° S 18:47:38 66° E 18:51:54 15° N visible
23 Dec 8.0 20:25:24 10° WSW 20:28:53 18° WNW 20:32:23 10° NNW visible
24 Dec 7.9 05:09:53 10° NNE 05:13:48 21° ENE 05:17:41 10° ESE visible
24 Dec 5.6 06:49:49 10° NNW 06:54:54 55° W 06:59:58 10° SSW visible
24 Dec 6.0 18:09:29 10° SSE 18:14:14 38° E 18:19:01 10° NNE visible
24 Dec 7.3 19:50:29 10° SW 19:55:01 30° WNW 19:59:35 10° NNW visible
25 Dec 8.5 04:37:45 10° NE 04:39:50 12° ENE 04:41:54 10° E visible
25 Dec 5.5 06:16:10 10° N 06:21:25 85° E 06:26:37 10° S visible
25 Dec 6.6 17:37:01 10° SE 17:40:57 22° E 17:44:54 10° NNE visible
25 Dec 6.3 19:16:14 10° SSW 19:21:18 51° W 19:26:23 10° N visible
26 Dec 6.4 05:42:44 10° N 05:47:48 49° E 05:52:50 10° SSE visible
26 Dec 6.6 07:24:09 10° NNW 07:28:11 23° W 07:32:12 10° SW visible
26 Dec 5.5 18:42:29 10° S 18:47:41 89° W 18:52:56 10° N visible
26 Dec 8.4 20:26:55 10° W 20:29:14 13° WNW 20:31:33 10° NW visible
27 Dec 7.4 05:09:34 10° NNE 05:14:04 29° ENE 05:18:32 10° SE visible
27 Dec 6.0 06:50:04 10° NNW 06:54:53 39° W 06:59:42 10° SSW visible
27 Dec 5.6 18:09:11 10° SSE 18:14:13 53° E 18:19:17 10° NNE visible
27 Dec 7.8 19:51:18 10° WSW 19:55:17 22° WNW 19:59:17 10° NNW visible
28 Dec 8.1 04:36:49 10° NNE 04:40:11 17° ENE 04:43:32 10° ESE visible
28 Dec 5.4 06:16:17 10° N 06:21:28 69° W 06:26:38 10° S visible
28 Dec 6.3 17:36:22 10° SE 17:40:51 30° E 17:45:22 10° NNE visible
28 Dec 7.0 19:16:40 10° SW 19:21:28 37° W 19:26:17 10° NNW visible
29 Dec 5.8 05:42:43 10° N 05:47:56 69° E 05:53:07 10° SSE visible
29 Dec 6.9 07:24:49 10° NW 07:28:03 17° WNW 07:31:17 10° WSW visible
29 Dec 5.9 18:42:38 10° SSW 18:47:47 64° W 18:52:59 10° N visible
